Flag for Israel Weather past 2 weeks in Tel Aviv, Israel

Now
64 °F

Clear.


Feels Like: 64 °F
Forecast: 62 / 79 °F
Wind: 2 mph from North

Location: Ben Gurion International Airport

Current Time: Apr 25, 2015 at 10:02:39 PM

Latest Report: Apr 25, 2015 at 9:20 PM


Visibility: 10 mi

Pressure: 30.07 "Hg

Humidity: 56%

Dew point: 48 °F

Location of Tel AvivLocation

Historic Weather in Tel Aviv — Graph

°F

Tel Aviv temperature yesterday

Maximum temperature yesterday: 66 °F (at 11:20 AM)
Minimum temperature yesterday: 54 °F (at 12:20 AM)
Average temperature yesterday: 61 °F

Past Weeks' High & Low Weather Summary

 TemperatureHumidityPressure
High90 °F (Apr 20, 1:20 PM)94% (Apr 11, 9:20 AM)30.30 "Hg (Apr 11, 9:20 AM)
Low46 °F (Apr 12, 1:50 PM)12% (Apr 20, 3:50 PM)29.83 "Hg (Apr 15, 1:20 PM)
Average63 °F65%30.06 "Hg
* Reported Apr 10 8:20 PM — Apr 25 8:50 PM, Tel Aviv, Weather by CustomWeather, © 2015

Note: Actual official high and low records may vary slightly from our data, if they occured in-between our weather recording intervals... More about our weather records

Advertising

Tel Aviv weather history for previous 24 hours

 ConditionsComfort  
Time TempWeatherWind HumidityBarometerVisibility
8:50 PM
Sat, Apr 25
64 °FClear.5 mph60%30.07 "Hg10 mi
8:20 PM64 °FClear.5 mph60%30.07 "Hg10 mi
7:50 PM64 °FSunny.6 mph60%30.07 "Hg10 mi
7:20 PM66 °FSunny.8 mph56%30.07 "Hg10 mi
6:50 PM66 °FSunny.13 mph60%30.07 "Hg10 mi
6:20 PM68 °FSunny.13 mph53%30.04 "Hg10 mi
5:50 PM70 °FSunny.12 mph50%30.07 "Hg10 mi
5:20 PM70 °FSunny.14 mph53%30.07 "Hg10 mi
4:50 PM72 °FSunny.14 mph47%30.07 "Hg10 mi
4:20 PM72 °FSunny.14 mph50%30.07 "Hg10 mi
3:50 PM72 °FSunny.17 mph47%30.07 "Hg10 mi
3:20 PM72 °FSunny.16 mph44%30.07 "Hg10 mi
2:50 PM72 °FSunny.17 mph41%30.09 "Hg10 mi
2:20 PM73 °FSunny.16 mph38%30.09 "Hg10 mi
1:50 PM73 °FSunny.15 mph36%30.12 "Hg10 mi
1:20 PM72 °FSunny.14 mph38%30.12 "Hg10 mi
12:50 PM73 °FSunny.9 mph33%30.12 "Hg10 mi
12:20 PM73 °FPassing clouds.6 mph27%30.15 "HgN/A
11:50 AM72 °FPassing clouds.6 mph33%30.15 "HgN/A
11:20 AM70 °FSunny.3 mph35%30.18 "Hg10 mi
10:50 AM68 °FPassing clouds.6 mph38%30.18 "HgN/A
10:20 AM66 °FSunny.7 mph40%30.18 "Hg10 mi
9:50 AM64 °FPassing clouds.8 mph43%30.18 "HgN/A
9:20 AM63 °FSunny.12 mph49%30.21 "Hg10 mi
8:50 AM63 °FSunny.13 mph52%30.21 "Hg10 mi
8:20 AM61 °FSunny.6 mph55%30.21 "Hg10 mi
7:50 AM57 °FSunny.5 mph63%30.21 "Hg10 mi
7:20 AM54 °FSunny.5 mph67%30.21 "Hg10 mi
6:20 AM52 °FClear.5 mph67%30.21 "Hg10 mi
5:50 AM50 °FClear.6 mph71%30.21 "Hg10 mi
5:20 AM52 °FClear.5 mph67%30.21 "Hg10 mi
4:50 AM52 °FClear.5 mph67%30.21 "Hg10 mi
4:20 AM50 °FClear.3 mph71%30.18 "Hg10 mi
3:50 AM52 °FClear.3 mph67%30.21 "Hg10 mi
3:20 AM52 °FClear.2 mph67%30.21 "Hg10 mi
2:50 AM54 °FClear.5 mph63%30.21 "Hg10 mi
2:20 AM54 °FClear.3 mph63%30.21 "Hg10 mi
1:50 AM54 °FClear.3 mph63%30.21 "Hg10 mi
1:20 AM54 °FClear.3 mph63%30.21 "Hg10 mi
12:50 AM54 °FClear.3 mph67%30.21 "Hg10 mi
12:20 AM54 °FClear.2 mph63%30.24 "Hg10 mi
11:50 PM
Fri, Apr 24
55 °FClear.2 mph59%30.24 "Hg10 mi
11:20 PM55 °FClear.5 mph59%30.24 "Hg10 mi
10:50 PM59 °FClear.5 mph51%30.24 "Hg10 mi
10:20 PM57 °FClear.6 mph55%30.24 "Hg10 mi
Weather by CustomWeather, © 2015

See weather overviewHow to use our weather pages